Year,Month,Day,Hour,Minute,Value (Times are PST for temperature in C)
2015,10,11,00,00,12.80
2015,10,11,00,01,12.80
2015,10,11,00,02,12.70
2015,10,11,00,03,12.70
2015,10,11,00,04,12.70
2015,10,11,00,05,12.70
2015,10,11,00,06,12.70
2015,10,11,00,07,12.70
2015,10,11,00,08,12.70
2015,10,11,00,09,12.70
2015,10,11,00,10,12.70
2015,10,11,00,11,12.70
2015,10,11,00,12,12.70
2015,10,11,00,13,12.70
2015,10,11,00,14,12.70
2015,10,11,00,15,12.70
2015,10,11,00,16,12.70
2015,10,11,00,17,12.70
2015,10,11,00,18,12.70
2015,10,11,00,19,12.70
2015,10,11,00,20,12.70
2015,10,11,00,21,12.70
2015,10,11,00,22,12.70
2015,10,11,00,23,12.70
2015,10,11,00,24,12.70
2015,10,11,00,25,12.80
2015,10,11,00,26,12.80
2015,10,11,00,27,12.90
2015,10,11,00,28,12.90
2015,10,11,00,29,12.90
2015,10,11,00,30,12.80
2015,10,11,00,31,12.80
2015,10,11,00,32,12.80
2015,10,11,00,33,12.80
2015,10,11,00,34,12.70
2015,10,11,00,35,12.70
2015,10,11,00,36,12.70
2015,10,11,00,37,12.60
2015,10,11,00,38,12.60
2015,10,11,00,39,12.60
2015,10,11,00,40,12.60
2015,10,11,00,41,12.70
2015,10,11,00,42,12.70
2015,10,11,00,43,12.70
2015,10,11,00,44,12.70
2015,10,11,00,45,12.70
2015,10,11,00,46,12.70
2015,10,11,00,47,12.80
2015,10,11,00,48,12.90
2015,10,11,00,49,12.90
2015,10,11,00,50,12.90
2015,10,11,00,51,12.90
2015,10,11,00,52,12.90
2015,10,11,00,53,12.90
2015,10,11,00,54,12.90
2015,10,11,00,55,12.90
2015,10,11,00,56,12.90
2015,10,11,00,57,12.80
2015,10,11,00,58,12.80
2015,10,11,00,59,12.80
2015,10,11,01,00,12.90
2015,10,11,01,01,12.90
2015,10,11,01,02,12.90
2015,10,11,01,03,13.00
2015,10,11,01,04,13.10
2015,10,11,01,05,13.10
2015,10,11,01,06,13.10
2015,10,11,01,07,13.10
2015,10,11,01,08,13.10
2015,10,11,01,09,13.00
2015,10,11,01,10,13.00
2015,10,11,01,11,13.00
2015,10,11,01,12,12.90
2015,10,11,01,13,12.90
2015,10,11,01,14,12.90
2015,10,11,01,15,12.90
2015,10,11,01,16,12.90
2015,10,11,01,17,13.00
2015,10,11,01,18,13.00
2015,10,11,01,19,12.90
2015,10,11,01,20,12.90
2015,10,11,01,21,12.90
2015,10,11,01,22,12.90
2015,10,11,01,23,12.90
2015,10,11,01,24,13.00
2015,10,11,01,25,13.00
2015,10,11,01,26,13.00
2015,10,11,01,27,13.00
2015,10,11,01,28,13.10
2015,10,11,01,29,13.10
2015,10,11,01,30,13.10
2015,10,11,01,31,13.10
2015,10,11,01,32,13.10
2015,10,11,01,33,13.00
2015,10,11,01,34,13.00
2015,10,11,01,35,12.90
2015,10,11,01,36,12.90
2015,10,11,01,37,12.90
2015,10,11,01,38,12.80
2015,10,11,01,39,12.80
2015,10,11,01,40,12.70
2015,10,11,01,41,12.60
2015,10,11,01,42,12.60
2015,10,11,01,43,12.50
2015,10,11,01,44,12.50
2015,10,11,01,45,12.40
2015,10,11,01,46,12.30
2015,10,11,01,47,12.30
2015,10,11,01,48,12.20
2015,10,11,01,49,12.20
2015,10,11,01,50,12.10
2015,10,11,01,51,12.10
2015,10,11,01,52,12.10
2015,10,11,01,53,12.10
2015,10,11,01,54,12.10
2015,10,11,01,55,12.10
2015,10,11,01,56,12.10
2015,10,11,01,57,12.20
2015,10,11,01,58,12.20
2015,10,11,01,59,12.20
2015,10,11,02,00,12.20
2015,10,11,02,01,12.20
2015,10,11,02,02,12.20
2015,10,11,02,03,12.20
2015,10,11,02,04,12.30
2015,10,11,02,05,12.30
2015,10,11,02,06,12.30
2015,10,11,02,07,12.30
2015,10,11,02,08,12.30
2015,10,11,02,09,12.40
2015,10,11,02,10,12.40
2015,10,11,02,11,12.40
2015,10,11,02,12,12.50
2015,10,11,02,13,12.50
2015,10,11,02,14,12.60
2015,10,11,02,15,12.60
2015,10,11,02,16,12.60
2015,10,11,02,17,12.70
2015,10,11,02,18,12.70
2015,10,11,02,19,12.70
2015,10,11,02,20,12.70
2015,10,11,02,21,12.70
2015,10,11,02,22,12.70
2015,10,11,02,23,12.70
2015,10,11,02,24,12.70
2015,10,11,02,25,12.70
2015,10,11,02,26,12.70
2015,10,11,02,27,12.80
2015,10,11,02,28,12.80
2015,10,11,02,29,12.80
2015,10,11,02,30,12.80
2015,10,11,02,31,12.80
2015,10,11,02,32,12.80
2015,10,11,02,33,12.80
2015,10,11,02,34,12.80
2015,10,11,02,35,12.80
2015,10,11,02,36,12.80
2015,10,11,02,37,12.90
2015,10,11,02,38,12.90
2015,10,11,02,39,12.80
2015,10,11,02,40,12.80
2015,10,11,02,41,12.80
2015,10,11,02,42,12.80
2015,10,11,02,43,12.80
2015,10,11,02,44,12.80
2015,10,11,02,45,12.80
2015,10,11,02,46,12.90
2015,10,11,02,47,12.90
2015,10,11,02,48,13.00
2015,10,11,02,49,13.00
2015,10,11,02,50,13.00
2015,10,11,02,51,13.00
2015,10,11,02,52,13.00
2015,10,11,02,53,12.90
2015,10,11,02,54,12.90
2015,10,11,02,55,12.90
2015,10,11,02,56,13.00
2015,10,11,02,57,13.00
2015,10,11,02,58,13.00
2015,10,11,02,59,13.00
2015,10,11,03,00,13.10
2015,10,11,03,01,13.10
2015,10,11,03,02,13.00
2015,10,11,03,03,13.00
2015,10,11,03,04,12.90
2015,10,11,03,05,12.90
2015,10,11,03,06,12.90
2015,10,11,03,07,12.90
2015,10,11,03,08,12.90
2015,10,11,03,09,12.90
2015,10,11,03,10,12.80
2015,10,11,03,11,12.80
2015,10,11,03,12,12.80
2015,10,11,03,13,12.70
2015,10,11,03,14,12.70
2015,10,11,03,15,12.70
2015,10,11,03,16,12.70
2015,10,11,03,17,12.70
2015,10,11,03,18,12.70
2015,10,11,03,19,12.70
2015,10,11,03,20,12.70
2015,10,11,03,21,12.80
2015,10,11,03,22,12.80
2015,10,11,03,23,12.80
2015,10,11,03,24,12.80
2015,10,11,03,25,12.80
2015,10,11,03,26,12.80
2015,10,11,03,27,12.70
2015,10,11,03,28,12.70
2015,10,11,03,29,12.70
2015,10,11,03,30,12.70
2015,10,11,03,31,12.70
2015,10,11,03,32,12.70
2015,10,11,03,33,12.70
2015,10,11,03,34,12.70
2015,10,11,03,35,12.60
2015,10,11,03,36,12.60
2015,10,11,03,37,12.60
2015,10,11,03,38,12.60
2015,10,11,03,39,12.60
2015,10,11,03,40,12.60
2015,10,11,03,41,12.60
2015,10,11,03,42,12.60
2015,10,11,03,43,12.60
2015,10,11,03,44,12.60
2015,10,11,03,45,12.50
2015,10,11,03,46,12.50
2015,10,11,03,47,12.40
2015,10,11,03,48,12.40
2015,10,11,03,49,12.40
2015,10,11,03,50,12.30
2015,10,11,03,51,12.30
2015,10,11,03,52,12.30
2015,10,11,03,53,12.20
2015,10,11,03,54,12.20
2015,10,11,03,55,12.20
2015,10,11,03,56,12.20
2015,10,11,03,57,12.20
2015,10,11,03,58,12.10
2015,10,11,03,59,12.10
2015,10,11,04,00,12.10
2015,10,11,04,01,12.10
2015,10,11,04,02,12.10
2015,10,11,04,03,12.10
2015,10,11,04,04,12.10
2015,10,11,04,05,12.10
2015,10,11,04,06,12.10
2015,10,11,04,07,12.10
2015,10,11,04,08,12.10
2015,10,11,04,09,12.10
2015,10,11,04,10,12.10
2015,10,11,04,11,12.10
2015,10,11,04,12,12.10
2015,10,11,04,13,12.10
2015,10,11,04,14,12.20
2015,10,11,04,15,12.20
2015,10,11,04,16,12.20
2015,10,11,04,17,12.20
2015,10,11,04,18,12.20
2015,10,11,04,19,12.20
2015,10,11,04,20,12.30
2015,10,11,04,21,12.30
2015,10,11,04,22,12.30
2015,10,11,04,23,12.30
2015,10,11,04,24,12.40
2015,10,11,04,25,12.40
2015,10,11,04,26,12.40
2015,10,11,04,27,12.40
2015,10,11,04,28,12.40
2015,10,11,04,29,12.50
2015,10,11,04,30,12.50
2015,10,11,04,31,12.50
2015,10,11,04,32,12.50
2015,10,11,04,33,12.50
2015,10,11,04,34,12.50
2015,10,11,04,35,12.60
2015,10,11,04,36,12.60
2015,10,11,04,37,12.60
2015,10,11,04,38,12.60
2015,10,11,04,39,12.60
2015,10,11,04,40,12.50
2015,10,11,04,41,12.50
2015,10,11,04,42,12.40
2015,10,11,04,43,12.40
2015,10,11,04,44,12.40
2015,10,11,04,45,12.40
2015,10,11,04,46,12.30
2015,10,11,04,47,12.30
2015,10,11,04,48,12.30
2015,10,11,04,49,12.30
2015,10,11,04,50,12.30
2015,10,11,04,51,12.20
2015,10,11,04,52,12.20
2015,10,11,04,53,12.20
2015,10,11,04,54,12.20
2015,10,11,04,55,12.20
2015,10,11,04,56,12.10
2015,10,11,04,57,12.10
2015,10,11,04,58,12.10
2015,10,11,04,59,12.10
2015,10,11,05,00,12.10
2015,10,11,05,01,12.10
2015,10,11,05,02,12.10
2015,10,11,05,03,12.10
2015,10,11,05,04,12.10
2015,10,11,05,05,12.10
2015,10,11,05,06,12.10
2015,10,11,05,07,12.10
2015,10,11,05,08,12.10
2015,10,11,05,09,12.10
2015,10,11,05,10,12.10
2015,10,11,05,11,12.10
2015,10,11,05,12,12.10
2015,10,11,05,13,12.10
2015,10,11,05,14,12.00
2015,10,11,05,15,12.10
2015,10,11,05,16,12.10
2015,10,11,05,17,12.10
2015,10,11,05,18,12.10
2015,10,11,05,19,12.10
2015,10,11,05,20,12.10
2015,10,11,05,21,12.10
2015,10,11,05,22,12.10
2015,10,11,05,23,12.10
2015,10,11,05,24,12.10
2015,10,11,05,25,12.10
2015,10,11,05,26,12.10
2015,10,11,05,27,12.10
2015,10,11,05,28,12.10
2015,10,11,05,29,12.00
2015,10,11,05,30,11.90
2015,10,11,05,31,11.90
2015,10,11,05,32,11.80
2015,10,11,05,33,11.80
2015,10,11,05,34,11.80
2015,10,11,05,35,11.70
2015,10,11,05,36,11.70
2015,10,11,05,37,11.70
2015,10,11,05,38,11.70
2015,10,11,05,39,11.70
2015,10,11,05,40,11.70
2015,10,11,05,41,11.70
2015,10,11,05,42,11.70
2015,10,11,05,43,11.60
2015,10,11,05,44,11.60
2015,10,11,05,45,11.60
2015,10,11,05,46,11.60
2015,10,11,05,47,11.60
2015,10,11,05,48,11.50
2015,10,11,05,49,11.50
2015,10,11,05,50,11.50
2015,10,11,05,51,11.40
2015,10,11,05,52,11.40
2015,10,11,05,53,11.40
2015,10,11,05,54,11.40
2015,10,11,05,55,11.30
2015,10,11,05,56,11.30
2015,10,11,05,57,11.30
2015,10,11,05,58,11.30
2015,10,11,05,59,11.30
2015,10,11,06,00,11.20
2015,10,11,06,01,11.20
2015,10,11,06,02,11.20
2015,10,11,06,03,11.10
2015,10,11,06,04,11.10
2015,10,11,06,05,11.10
2015,10,11,06,06,11.00
2015,10,11,06,07,11.00
2015,10,11,06,08,10.90
2015,10,11,06,09,10.90
2015,10,11,06,10,10.80
2015,10,11,06,11,10.80
2015,10,11,06,12,10.80
2015,10,11,06,13,10.70
2015,10,11,06,14,10.70
2015,10,11,06,15,10.60
2015,10,11,06,16,10.50
2015,10,11,06,17,10.40
2015,10,11,06,18,10.40
2015,10,11,06,19,10.30
2015,10,11,06,20,10.30
2015,10,11,06,21,10.20
2015,10,11,06,22,10.20
2015,10,11,06,23,10.10
2015,10,11,06,24,10.10
2015,10,11,06,25,10.00
2015,10,11,06,26,10.00
2015,10,11,06,27,10.00
2015,10,11,06,28,9.90
2015,10,11,06,29,9.90
2015,10,11,06,30,9.80
2015,10,11,06,31,9.80
2015,10,11,06,32,9.70
2015,10,11,06,33,9.70
2015,10,11,06,34,9.70
2015,10,11,06,35,9.70
2015,10,11,06,36,9.70
2015,10,11,06,37,9.70
2015,10,11,06,38,9.70
2015,10,11,06,39,9.70
2015,10,11,06,40,9.80
2015,10,11,06,41,9.80
2015,10,11,06,42,9.80
2015,10,11,06,43,9.90
2015,10,11,06,44,9.90
2015,10,11,06,45,9.90
2015,10,11,06,46,9.90
2015,10,11,06,47,9.80
2015,10,11,06,48,9.80
2015,10,11,06,49,9.80
2015,10,11,06,50,9.80
2015,10,11,06,51,9.80
2015,10,11,06,52,9.70
2015,10,11,06,53,9.70
2015,10,11,06,54,9.60
2015,10,11,06,55,9.60
2015,10,11,06,56,9.60
2015,10,11,06,57,9.50
2015,10,11,06,58,9.50
2015,10,11,06,59,9.50
2015,10,11,07,00,9.50
2015,10,11,07,01,9.40
2015,10,11,07,02,9.40
2015,10,11,07,03,9.40
2015,10,11,07,04,9.40
2015,10,11,07,05,9.30
2015,10,11,07,06,9.30
2015,10,11,07,07,9.30
2015,10,11,07,08,9.30
2015,10,11,07,09,9.30
2015,10,11,07,10,9.30
2015,10,11,07,11,9.30
2015,10,11,07,12,9.30
2015,10,11,07,13,9.30
2015,10,11,07,14,9.30
2015,10,11,07,15,9.30
2015,10,11,07,16,9.20
2015,10,11,07,17,9.20
2015,10,11,07,18,9.20
2015,10,11,07,19,9.20
2015,10,11,07,20,9.10
2015,10,11,07,21,9.10
2015,10,11,07,22,9.10
2015,10,11,07,23,9.00
2015,10,11,07,24,9.00
2015,10,11,07,25,9.00
2015,10,11,07,26,9.00
2015,10,11,07,27,8.90
2015,10,11,07,28,8.90
2015,10,11,07,29,8.90
2015,10,11,07,30,8.80
2015,10,11,07,31,8.80
2015,10,11,07,32,8.80
2015,10,11,07,33,8.80
2015,10,11,07,34,8.80
2015,10,11,07,35,8.70
2015,10,11,07,36,8.70
2015,10,11,07,37,8.70
2015,10,11,07,38,8.70
2015,10,11,07,39,8.80
2015,10,11,07,40,8.80
2015,10,11,07,41,8.80
2015,10,11,07,42,8.80
2015,10,11,07,43,8.90
2015,10,11,07,44,8.90
2015,10,11,07,45,9.00
2015,10,11,07,46,9.00
2015,10,11,07,47,9.00
2015,10,11,07,48,9.10
2015,10,11,07,49,9.00
2015,10,11,07,50,8.90
2015,10,11,07,51,8.80
2015,10,11,07,52,8.80
2015,10,11,07,53,8.80
2015,10,11,07,54,8.70
2015,10,11,07,55,8.70
2015,10,11,07,56,8.70
2015,10,11,07,57,8.60
2015,10,11,07,58,8.60
2015,10,11,07,59,8.50
2015,10,11,08,00,8.50
2015,10,11,08,01,8.50
2015,10,11,08,02,8.50
2015,10,11,08,03,8.50
2015,10,11,08,04,8.50
2015,10,11,08,05,8.50
2015,10,11,08,06,8.50
2015,10,11,08,07,8.50
2015,10,11,08,08,8.50
2015,10,11,08,09,8.50
2015,10,11,08,10,8.50
2015,10,11,08,11,8.50
2015,10,11,08,12,8.50
2015,10,11,08,13,8.50
2015,10,11,08,14,8.60
2015,10,11,08,15,8.60
2015,10,11,08,16,8.60
2015,10,11,08,17,8.60
2015,10,11,08,18,8.60
2015,10,11,08,19,8.60
2015,10,11,08,20,8.60
2015,10,11,08,21,8.60
2015,10,11,08,22,8.70
2015,10,11,08,23,8.60
2015,10,11,08,24,8.70
2015,10,11,08,25,8.70
2015,10,11,08,26,8.70
2015,10,11,08,27,8.70
2015,10,11,08,28,8.70
2015,10,11,08,29,8.70
2015,10,11,08,30,8.70
2015,10,11,08,31,8.70
2015,10,11,08,32,8.70
2015,10,11,08,33,8.80
2015,10,11,08,34,8.80
2015,10,11,08,35,8.80
2015,10,11,08,36,8.90
2015,10,11,08,37,8.90
2015,10,11,08,38,8.90
2015,10,11,08,39,8.90
2015,10,11,08,40,9.00
2015,10,11,08,41,9.00
2015,10,11,08,42,9.10
2015,10,11,08,43,9.10
2015,10,11,08,44,9.20
2015,10,11,08,45,9.20
2015,10,11,08,46,9.30
2015,10,11,08,47,9.40
2015,10,11,08,48,9.40
2015,10,11,08,49,9.50
2015,10,11,08,50,9.60
2015,10,11,08,51,9.60
2015,10,11,08,52,9.70
2015,10,11,08,53,9.80
2015,10,11,08,54,9.80
2015,10,11,08,55,9.90
2015,10,11,08,56,9.90
2015,10,11,08,57,10.00
2015,10,11,08,58,10.00
2015,10,11,08,59,10.10
2015,10,11,09,00,10.10
2015,10,11,09,01,10.20
2015,10,11,09,02,10.30
2015,10,11,09,03,10.30
2015,10,11,09,04,10.40
2015,10,11,09,05,10.40
2015,10,11,09,06,10.40
2015,10,11,09,07,10.40
2015,10,11,09,08,10.50
2015,10,11,09,09,10.50
2015,10,11,09,10,10.50
2015,10,11,09,11,10.60
2015,10,11,09,12,10.60
2015,10,11,09,13,10.60
2015,10,11,09,14,10.70
2015,10,11,09,15,10.70
2015,10,11,09,16,10.70
2015,10,11,09,17,10.80
2015,10,11,09,18,10.80
2015,10,11,09,19,10.80
2015,10,11,09,20,10.90
2015,10,11,09,21,10.90
2015,10,11,09,22,11.00
2015,10,11,09,23,11.00
2015,10,11,09,24,11.10
2015,10,11,09,25,11.10
2015,10,11,09,26,11.20
2015,10,11,09,27,11.20
2015,10,11,09,28,11.30
2015,10,11,09,29,11.30
2015,10,11,09,30,11.40
2015,10,11,09,31,11.40
2015,10,11,09,32,11.50
2015,10,11,09,33,11.60
2015,10,11,09,34,11.60
2015,10,11,09,35,11.70
2015,10,11,09,36,11.70
2015,10,11,09,37,11.80
2015,10,11,09,38,11.80
2015,10,11,09,39,11.80
2015,10,11,09,40,11.90
2015,10,11,09,41,11.90
2015,10,11,09,42,12.00
2015,10,11,09,43,12.00
2015,10,11,09,44,12.10
2015,10,11,09,45,12.10
2015,10,11,09,46,12.20
2015,10,11,09,47,12.20
2015,10,11,09,48,12.30
2015,10,11,09,49,12.30
2015,10,11,09,50,12.40
2015,10,11,09,51,12.40
2015,10,11,09,52,12.50
2015,10,11,09,53,12.60
2015,10,11,09,54,12.60
2015,10,11,09,55,12.60
2015,10,11,09,56,12.70
2015,10,11,09,57,12.70
2015,10,11,09,58,12.70
2015,10,11,09,59,12.70
2015,10,11,10,00,12.80
2015,10,11,10,01,12.80
2015,10,11,10,02,12.80
2015,10,11,10,03,12.90
2015,10,11,10,04,12.90
2015,10,11,10,05,12.90
2015,10,11,10,06,12.90
2015,10,11,10,07,12.90
2015,10,11,10,08,13.00
2015,10,11,10,09,13.00
2015,10,11,10,10,13.10
2015,10,11,10,11,13.10
2015,10,11,10,12,13.10
2015,10,11,10,13,13.20
2015,10,11,10,14,13.20
2015,10,11,10,15,13.20
2015,10,11,10,16,13.30
2015,10,11,10,17,13.30
2015,10,11,10,18,13.30
2015,10,11,10,19,13.40
2015,10,11,10,20,13.40
2015,10,11,10,21,13.40
2015,10,11,10,22,13.50
2015,10,11,10,23,13.50
2015,10,11,10,24,13.60
2015,10,11,10,25,13.60
2015,10,11,10,26,13.60
2015,10,11,10,27,13.70
2015,10,11,10,28,13.70
2015,10,11,10,29,13.70
2015,10,11,10,30,13.70
2015,10,11,10,31,13.70
2015,10,11,10,32,13.70
2015,10,11,10,33,13.80
2015,10,11,10,34,13.80
2015,10,11,10,35,13.80
2015,10,11,10,36,13.80
2015,10,11,10,37,13.80
2015,10,11,10,38,13.80
2015,10,11,10,39,13.80
2015,10,11,10,40,13.80
2015,10,11,10,41,13.80
2015,10,11,10,42,13.80
2015,10,11,10,43,13.80
2015,10,11,10,44,13.90
2015,10,11,10,45,13.90
2015,10,11,10,46,13.90
2015,10,11,10,47,14.00
2015,10,11,10,48,14.00
2015,10,11,10,49,14.10
2015,10,11,10,50,14.10
2015,10,11,10,51,14.10
2015,10,11,10,52,14.10
2015,10,11,10,53,14.20
2015,10,11,10,54,14.20
2015,10,11,10,55,14.10
2015,10,11,10,56,14.10
2015,10,11,10,57,14.00
2015,10,11,10,58,14.00
2015,10,11,10,59,14.00
2015,10,11,11,00,13.90
2015,10,11,11,01,13.90
2015,10,11,11,02,13.90
2015,10,11,11,03,13.80
2015,10,11,11,04,13.80
2015,10,11,11,05,13.80
2015,10,11,11,06,13.80
2015,10,11,11,07,13.80
2015,10,11,11,08,13.80
2015,10,11,11,09,13.80
2015,10,11,11,10,13.80
2015,10,11,11,11,13.80
2015,10,11,11,12,13.80
2015,10,11,11,13,13.80
2015,10,11,11,14,13.80
2015,10,11,11,15,13.80
2015,10,11,11,16,13.80
2015,10,11,11,17,13.80
2015,10,11,11,18,13.80
2015,10,11,11,19,13.90
2015,10,11,11,20,13.90
2015,10,11,11,21,13.90
2015,10,11,11,22,13.90
2015,10,11,11,23,13.90
2015,10,11,11,24,14.00
2015,10,11,11,25,14.00
2015,10,11,11,26,14.00
2015,10,11,11,27,14.10
2015,10,11,11,28,14.10
2015,10,11,11,29,14.10
2015,10,11,11,30,14.20
2015,10,11,11,31,14.20
2015,10,11,11,32,14.30
2015,10,11,11,33,14.40
2015,10,11,11,34,14.40
2015,10,11,11,35,14.50
2015,10,11,11,36,14.60
2015,10,11,11,37,14.70
2015,10,11,11,38,14.80
2015,10,11,11,39,14.90
2015,10,11,11,40,14.90
2015,10,11,11,41,15.00
2015,10,11,11,42,15.10
2015,10,11,11,43,15.10
2015,10,11,11,44,15.20
2015,10,11,11,45,15.20
2015,10,11,11,46,15.20
2015,10,11,11,47,15.20
2015,10,11,11,48,15.20
2015,10,11,11,49,15.20
2015,10,11,11,50,15.20
2015,10,11,11,51,15.20
2015,10,11,11,52,15.20
2015,10,11,11,53,15.20
2015,10,11,11,54,15.20
2015,10,11,11,55,15.10
2015,10,11,11,56,15.10
2015,10,11,11,57,15.10
2015,10,11,11,58,15.00
2015,10,11,11,59,15.00
2015,10,11,12,00,14.90
2015,10,11,12,01,14.80
2015,10,11,12,02,14.80
2015,10,11,12,03,14.80
2015,10,11,12,04,14.70
2015,10,11,12,05,14.60
2015,10,11,12,06,14.60
2015,10,11,12,07,14.60
2015,10,11,12,08,14.60
2015,10,11,12,09,14.50
2015,10,11,12,10,14.50
2015,10,11,12,11,14.50
2015,10,11,12,12,14.40
2015,10,11,12,13,14.40
2015,10,11,12,14,14.40
2015,10,11,12,15,14.40
2015,10,11,12,16,14.40
2015,10,11,12,17,14.40
2015,10,11,12,18,14.50
2015,10,11,12,19,14.50
2015,10,11,12,20,14.50
2015,10,11,12,21,14.60
2015,10,11,12,22,14.60
2015,10,11,12,23,14.60
2015,10,11,12,24,14.60
2015,10,11,12,25,14.60
2015,10,11,12,26,14.60
2015,10,11,12,27,14.60
2015,10,11,12,28,14.60
2015,10,11,12,29,14.50
2015,10,11,12,30,14.50
2015,10,11,12,31,14.50
2015,10,11,12,32,14.40
2015,10,11,12,33,14.40
2015,10,11,12,34,14.40
2015,10,11,12,35,14.40
2015,10,11,12,36,14.40
2015,10,11,12,37,14.50
2015,10,11,12,38,14.50
2015,10,11,12,39,14.60
2015,10,11,12,40,14.60
2015,10,11,12,41,14.60
2015,10,11,12,42,14.60
2015,10,11,12,43,14.70
2015,10,11,12,44,14.70
2015,10,11,12,45,14.70
2015,10,11,12,46,14.70
2015,10,11,12,47,14.80
2015,10,11,12,48,14.80
2015,10,11,12,49,14.80
2015,10,11,12,50,14.80
2015,10,11,12,51,14.90
2015,10,11,12,52,14.90
2015,10,11,12,53,15.00
2015,10,11,12,54,15.00
2015,10,11,12,55,15.10
2015,10,11,12,56,15.10
2015,10,11,12,57,15.10
2015,10,11,12,58,15.20
2015,10,11,12,59,15.30
2015,10,11,13,00,15.50
2015,10,11,13,01,15.70
2015,10,11,13,02,15.80
2015,10,11,13,03,15.80
2015,10,11,13,04,15.90
2015,10,11,13,05,15.80
2015,10,11,13,06,15.80
2015,10,11,13,07,15.70
2015,10,11,13,08,15.70
2015,10,11,13,09,15.60
2015,10,11,13,10,15.60
2015,10,11,13,11,15.50
2015,10,11,13,12,15.50
2015,10,11,13,13,15.50
2015,10,11,13,14,15.40
2015,10,11,13,15,15.40
2015,10,11,13,16,15.40
2015,10,11,13,17,15.40
2015,10,11,13,18,15.40
2015,10,11,13,19,15.40
2015,10,11,13,20,15.40
2015,10,11,13,21,15.50
2015,10,11,13,22,15.50
2015,10,11,13,23,15.50
2015,10,11,13,24,15.50
2015,10,11,13,25,15.50
2015,10,11,13,26,15.50
2015,10,11,13,27,15.50
2015,10,11,13,28,15.50
2015,10,11,13,29,15.50
2015,10,11,13,30,15.50
2015,10,11,13,31,15.50
2015,10,11,13,32,15.50
2015,10,11,13,33,15.50
2015,10,11,13,34,15.40
2015,10,11,13,35,15.40
2015,10,11,13,36,15.40
2015,10,11,13,37,15.30
2015,10,11,13,38,15.30
2015,10,11,13,39,15.30
2015,10,11,13,40,15.30
2015,10,11,13,41,15.30
2015,10,11,13,42,15.30
2015,10,11,13,43,15.30
2015,10,11,13,44,15.30
2015,10,11,13,45,15.20
2015,10,11,13,46,15.20
2015,10,11,13,47,15.10
2015,10,11,13,48,15.10
2015,10,11,13,49,15.10
2015,10,11,13,50,15.10
2015,10,11,13,51,15.10
2015,10,11,13,52,15.10
2015,10,11,13,53,15.10
2015,10,11,13,54,15.10
2015,10,11,13,55,15.20
2015,10,11,13,56,15.20
2015,10,11,13,57,15.20
2015,10,11,13,58,15.20
2015,10,11,13,59,15.20
2015,10,11,14,00,15.20
2015,10,11,14,01,15.20
2015,10,11,14,02,15.30
2015,10,11,14,03,15.30
2015,10,11,14,04,15.30
2015,10,11,14,05,15.30
2015,10,11,14,06,15.40
2015,10,11,14,07,15.40
2015,10,11,14,08,15.30
2015,10,11,14,09,15.30
2015,10,11,14,10,15.30
2015,10,11,14,11,15.40
2015,10,11,14,12,15.40
2015,10,11,14,13,15.40
2015,10,11,14,14,15.40
2015,10,11,14,15,15.40
2015,10,11,14,16,15.30
2015,10,11,14,17,15.30
2015,10,11,14,18,15.30
2015,10,11,14,19,15.30
2015,10,11,14,20,15.30
2015,10,11,14,21,15.40
2015,10,11,14,22,15.40
2015,10,11,14,23,15.30
2015,10,11,14,24,15.30
2015,10,11,14,25,15.30
2015,10,11,14,26,15.30
2015,10,11,14,27,15.30
2015,10,11,14,28,15.30
2015,10,11,14,29,15.30
2015,10,11,14,30,15.30
2015,10,11,14,31,15.30
2015,10,11,14,32,15.30
2015,10,11,14,33,15.40
2015,10,11,14,34,15.40
2015,10,11,14,35,15.40
2015,10,11,14,36,15.40
2015,10,11,14,37,15.40
2015,10,11,14,38,15.50
2015,10,11,14,39,15.50
2015,10,11,14,40,15.50
2015,10,11,14,41,15.60
2015,10,11,14,42,15.60
2015,10,11,14,43,15.70
2015,10,11,14,44,15.70
2015,10,11,14,45,15.70
2015,10,11,14,46,15.70
2015,10,11,14,47,15.70
2015,10,11,14,48,15.70
2015,10,11,14,49,15.80
2015,10,11,14,50,15.80
2015,10,11,14,51,15.80
2015,10,11,14,52,15.80
2015,10,11,14,53,15.80
2015,10,11,14,54,15.70
2015,10,11,14,55,15.70
2015,10,11,14,56,15.70
2015,10,11,14,57,15.70
2015,10,11,14,58,15.70
2015,10,11,14,59,15.60
2015,10,11,15,00,15.60
2015,10,11,15,01,15.60
2015,10,11,15,02,15.70
2015,10,11,15,03,15.70
2015,10,11,15,04,15.70
2015,10,11,15,05,15.70
2015,10,11,15,06,15.70
2015,10,11,15,07,15.70
2015,10,11,15,08,15.70
2015,10,11,15,09,15.70
2015,10,11,15,10,15.70
2015,10,11,15,11,15.70
2015,10,11,15,12,15.70
2015,10,11,15,13,15.70
2015,10,11,15,14,15.70
2015,10,11,15,15,15.70
2015,10,11,15,16,15.60
2015,10,11,15,17,15.60
2015,10,11,15,18,15.50
2015,10,11,15,19,15.50
2015,10,11,15,20,15.40
2015,10,11,15,21,15.40
2015,10,11,15,22,15.40
2015,10,11,15,23,15.30
2015,10,11,15,24,15.30
2015,10,11,15,25,15.30
2015,10,11,15,26,15.30
2015,10,11,15,27,15.30
2015,10,11,15,28,15.30
2015,10,11,15,29,15.30
2015,10,11,15,30,15.20
2015,10,11,15,31,15.20
2015,10,11,15,32,15.20
2015,10,11,15,33,15.20
2015,10,11,15,34,15.20
2015,10,11,15,35,15.20
2015,10,11,15,36,15.20
2015,10,11,15,37,15.20
2015,10,11,15,38,15.20
2015,10,11,15,39,15.20
2015,10,11,15,40,15.20
2015,10,11,15,41,15.20
2015,10,11,15,42,15.20
2015,10,11,15,43,15.20
2015,10,11,15,44,15.10
2015,10,11,15,45,15.10
2015,10,11,15,46,15.10
2015,10,11,15,47,15.10
2015,10,11,15,48,15.10
2015,10,11,15,49,15.10
2015,10,11,15,50,15.10
2015,10,11,15,51,15.10
2015,10,11,15,52,15.10
2015,10,11,15,53,15.10
2015,10,11,15,54,15.10
2015,10,11,15,55,15.10
2015,10,11,15,56,15.10
2015,10,11,15,57,15.10
2015,10,11,15,58,15.10
2015,10,11,15,59,15.20
2015,10,11,16,00,15.20
2015,10,11,16,01,15.20
2015,10,11,16,02,15.20
2015,10,11,16,03,15.20
2015,10,11,16,04,15.20
2015,10,11,16,05,15.20
2015,10,11,16,06,15.20
2015,10,11,16,07,15.20
2015,10,11,16,08,15.20
2015,10,11,16,09,15.20
2015,10,11,16,10,15.10
2015,10,11,16,11,15.10
2015,10,11,16,12,15.10
2015,10,11,16,13,15.10
2015,10,11,16,14,15.10
2015,10,11,16,15,15.00
2015,10,11,16,16,15.00
2015,10,11,16,17,15.00
2015,10,11,16,18,15.00
2015,10,11,16,19,14.90
2015,10,11,16,20,14.90
2015,10,11,16,21,14.90
2015,10,11,16,22,14.90
2015,10,11,16,23,14.90
2015,10,11,16,24,14.90
2015,10,11,16,25,14.90
2015,10,11,16,26,14.90
2015,10,11,16,27,14.90
2015,10,11,16,28,14.90
2015,10,11,16,29,14.90
2015,10,11,16,30,14.90
2015,10,11,16,31,14.90
2015,10,11,16,32,14.90
2015,10,11,16,33,14.90
2015,10,11,16,34,14.90
2015,10,11,16,35,14.90
2015,10,11,16,36,14.90
2015,10,11,16,37,14.90
2015,10,11,16,38,14.90
2015,10,11,16,39,14.90
2015,10,11,16,40,14.90
2015,10,11,16,41,14.90
2015,10,11,16,42,14.90
2015,10,11,16,43,14.90
2015,10,11,16,44,14.90
2015,10,11,16,45,14.90
2015,10,11,16,46,14.90
2015,10,11,16,47,14.90
2015,10,11,16,48,14.90
2015,10,11,16,49,14.80
2015,10,11,16,50,14.80
2015,10,11,16,51,14.80
2015,10,11,16,52,14.80
2015,10,11,16,53,14.80
2015,10,11,16,54,14.80
2015,10,11,16,55,14.80
2015,10,11,16,56,14.80
2015,10,11,16,57,14.80
2015,10,11,16,58,14.80
2015,10,11,16,59,14.80
2015,10,11,17,00,14.80
2015,10,11,17,01,14.80
2015,10,11,17,02,14.80
2015,10,11,17,03,14.80
2015,10,11,17,04,14.80
2015,10,11,17,05,14.80
2015,10,11,17,06,14.80
2015,10,11,17,07,14.80
2015,10,11,17,08,14.80
2015,10,11,17,09,14.80
2015,10,11,17,10,14.80
2015,10,11,17,11,14.80
2015,10,11,17,12,14.80
2015,10,11,17,13,14.80
2015,10,11,17,14,14.80
2015,10,11,17,15,14.80
2015,10,11,17,16,14.80
2015,10,11,17,17,14.80
2015,10,11,17,18,14.70
2015,10,11,17,19,14.70
2015,10,11,17,20,14.70
2015,10,11,17,21,14.70
2015,10,11,17,22,14.70
2015,10,11,17,23,14.60
2015,10,11,17,24,14.60
2015,10,11,17,25,14.50